| time (UTC) | temp C | wind direction | speed KPH | gust KPH | rain 1hr cm | rain 24hr cm | rain mn cm | humidity % | barometer mb |
| 20260509064835 | 13 | 200 | 4.8 | 22.5 | 0.00 | 0.00 | 0.00 | 78 | 1001.1 |
| 20260509063349 | 12 | 223 | 6.4 | 20.9 | 0.00 | 0.00 | 0.00 | 78 | 1001.1 |
| 20260509061835 | 11 | 166 | 4.8 | 9.7 | 0.00 | 0.00 | 0.00 | 72 | 1001.2 |
| 20260509060349 | 11 | 183 | 3.2 | 6.4 | 0.00 | 0.00 | 0.00 | 63 | 1001.6 |
| 20260509054833 | 11 | 193 | 3.2 | 8.0 | 0.00 | 0.00 | 0.00 | 59 | 1001.7 |
| 20260509053348 | 11 | 146 | 3.2 | 11.3 | 0.00 | 0.00 | 0.00 | 56 | 1001.7 |
| 20260509051834 | 11 | 111 | 3.2 | 11.3 | 0.00 | 0.00 | 0.00 | 55 | 1001.8 |
| 20260509050330 | 12 | 206 | 3.2 | 11.3 | 0.00 | 0.00 | 0.00 | 54 | 1001.7 |
| 20260509044833 | 12 | 195 | 6.4 | 14.5 | 0.00 | 0.00 | 0.00 | 53 | 1001.7 |
| 20260509043323 | 11 | 182 | 6.4 | 12.9 | 0.00 | 0.00 | 0.00 | 53 | 1001.7 |
| 20260509041855 | 11 | 169 | 3.2 | 8.0 | 0.00 | 0.00 | 0.00 | 53 | 1001.8 |
| 20260509040333 | 11 | 205 | 3.2 | 4.8 | 0.00 | 0.00 | 0.00 | 53 | 1002.0 |
| 20260509034855 | 11 | 142 | 0.0 | 1.6 | 0.00 | 0.00 | 0.00 | 51 | 1002.2 |
| 20260509033333 | 11 | 168 | 0.0 | 4.8 | 0.00 | 0.00 | 0.00 | 49 | 1002.4 |
| 20260509031828 | 11 | 139 | 1.6 | 4.8 | 0.00 | 0.00 | 0.00 | 47 | 1002.4 |
| 20260509030326 | 11 | 158 | 1.6 | 3.2 | 0.00 | 0.00 | 0.00 | 45 | 1002.6 |
| 20260509024831 | 11 | 155 | 1.6 | 3.2 | 0.00 | 0.00 | 0.00 | 43 | 1002.7 |
| 20260509023347 | 11 | 146 | 0.0 | 3.2 | 0.00 | 0.00 | 0.00 | 41 | 1003.0 |
| 20260509021835 | 12 | 158 | 1.6 | 3.2 | 0.00 | 0.00 | 0.00 | 40 | 1003.1 |
| 20260509020343 | 12 | 168 | 0.0 | 3.2 | 0.00 | 0.00 | 0.00 | 38 | 1003.1 |
| 20260509014906 | 12 | 173 | 0.0 | 3.2 | 0.00 | 0.00 | 0.00 | 37 | 1003.1 |
| 20260509013323 | 12 | 158 | 1.6 | 3.2 | 0.00 | 0.00 | 0.00 | 35 | 1003.0 |
| 20260509011837 | 12 | 176 | 1.6 | 3.2 | 0.00 | 0.00 | 0.00 | 34 | 1002.9 |
| 20260509010330 | 13 | 155 | 1.6 | 3.2 | 0.00 | 0.00 | 0.00 | 33 | 1003.0 |
| 20260509004834 | 14 | 158 | 0.0 | 1.6 | 0.00 | 0.00 | 0.00 | 30 | 1002.9 |
| 20260509003330 | 15 | 172 | 1.6 | 4.8 | 0.00 | 0.00 | 0.00 | 28 | 1002.8 |
| 20260509001839 | 15 | 160 | 1.6 | 3.2 | 0.00 | 0.00 | 0.00 | 26 | 1003.0 |
| 20260509000336 | 15 | 177 | 1.6 | 4.8 | 0.00 | 0.00 | 0.00 | 26 | 1003.2 |
| 20260508234843 | 16 | 141 | 1.6 | 4.8 | 0.00 | 0.00 | 0.00 | 25 | 1003.5 |
| 20260508233323 | 17 | 200 | 1.6 | 6.4 | 0.00 | 0.00 | 0.00 | 24 | 1003.5 |
| 20260508231832 | 17 | 191 | 4.8 | 9.7 | 0.00 | 0.00 | 0.00 | 22 | 1003.8 |
| 20260508230327 | 17 | 191 | 1.6 | 8.0 | 0.00 | 0.00 | 0.00 | 24 | 1003.9 |
| 20260508224829 | 17 | 61 | 1.6 | 8.0 | 0.00 | 0.00 | 0.00 | 26 | 1004.0 |
| 20260508223345 | 17 | 263 | 3.2 | 8.0 | 0.00 | 0.00 | 0.00 | 26 | 1004.0 |
| 20260508221828 | 17 | 272 | 3.2 | 9.7 | 0.00 | 0.00 | 0.00 | 28 | 1004.2 |
| 20260508220347 | 17 | 293 | 1.6 | 9.7 | 0.00 | 0.00 | 0.00 | 30 | 1004.3 |
| 20260508214828 | 17 | 200 | 4.8 | 11.3 | 0.00 | 0.00 | 0.00 | 28 | 1004.2 |
| 20260508213323 | 17 | 255 | 6.4 | 11.3 | 0.00 | 0.00 | 0.00 | 28 | 1004.4 |
| 20260508211839 | 17 | 237 | 4.8 | 14.5 | 0.00 | 0.00 | 0.00 | 28 | 1004.5 |
| 20260508210328 | 17 | 108 | 3.2 | 14.5 | 0.00 | 0.00 | 0.00 | 29 | 1004.6 |
| 20260508204838 | 17 | 200 | 3.2 | 11.3 | 0.00 | 0.00 | 0.00 | 29 | 1004.7 |
| 20260508203334 | 17 | 129 | 3.2 | 9.7 | 0.00 | 0.00 | 0.00 | 31 | 1004.8 |
| 20260508201831 | 16 | 18 | 3.2 | 14.5 | 0.00 | 0.00 | 0.00 | 31 | 1005.0 |
| 20260508200329 | 17 | 210 | 4.8 | 16.1 | 0.00 | 0.00 | 0.00 | 30 | 1005.4 |
| 20260508194833 | 16 | 134 | 4.8 | 16.1 | 0.00 | 0.00 | 0.00 | 33 | 1005.5 |
| 20260508193345 | 16 | 187 | 8.0 | 14.5 | 0.00 | 0.00 | 0.00 | 35 | 1005.7 |
| 20260508191829 | 16 | 343 | 4.8 | 11.3 | 0.00 | 0.00 | 0.00 | 34 | 1005.8 |
| 20260508190329 | 16 | 125 | 3.2 | 14.5 | 0.00 | 0.00 | 0.00 | 33 | 1005.9 |
| 20260508184912 | 17 | 330 | 4.8 | 14.5 | 0.00 | 0.00 | 0.00 | 32 | 1006.0 |
| 20260508183322 | 16 | 211 | 3.2 | 16.1 | 0.00 | 0.00 | 0.00 | 33 | 1006.1 |
| 20260508181836 | 16 | 307 | 6.4 | 14.5 | 0.00 | 0.00 | 0.00 | 34 | 1006.3 |
| 20260508180332 | 16 | 85 | 6.4 | 17.7 | 0.00 | 0.00 | 0.00 | 31 | 1006.4 |
| 20260508174837 | 16 | 237 | 6.4 | 14.5 | 0.00 | 0.00 | 0.00 | 32 | 1006.5 |
| 20260508173351 | 17 | 213 | 4.8 | 14.5 | 0.00 | 0.00 | 0.00 | 33 | 1006.7 |
| 20260508171824 | 17 | 224 | 3.2 | 14.5 | 0.00 | 0.00 | 0.00 | 35 | 1006.8 |
| 20260508170333 | 17 | 194 | 3.2 | 12.9 | 0.00 | 0.00 | 0.00 | 32 | 1007.0 |
| 20260508164837 | 17 | 26 | 4.8 | 11.3 | 0.00 | 0.00 | 0.00 | 33 | 1007.3 |
| 20260508163326 | 16 | 136 | 1.6 | 16.1 | 0.00 | 0.00 | 0.00 | 34 | 1007.4 |
| 20260508161833 | 17 | 293 | 4.8 | 9.7 | 0.00 | 0.00 | 0.00 | 30 | 1007.6 |
| 20260508160409 | 17 | 243 | 6.4 | 12.9 | 0.00 | 0.00 | 0.00 | 34 | 1007.5 |
| 20260508154823 | 16 | 224 | 3.2 | 14.5 | 0.00 | 0.00 | 0.00 | 36 | 1007.5 |
| 20260508153334 | 16 | 165 | 0.0 | 9.7 | 0.00 | 0.00 | 0.00 | 35 | 1007.5 |
| 20260508151845 | 16 | 169 | 3.2 | 12.9 | 0.00 | 0.00 | 0.00 | 38 | 1007.6 |
| 20260508150325 | 15 | 165 | 6.4 | 9.7 | 0.00 | 0.00 | 0.00 | 39 | 1007.6 |
| 20260508144826 | 15 | 231 | 4.8 | 9.7 | 0.00 | 0.00 | 0.00 | 46 | 1007.8 |
| 20260508143358 | 15 | 213 | 1.6 | 11.3 | 0.00 | 0.00 | 0.00 | 51 | 1007.8 |
| 20260508141827 | 14 | 203 | 1.6 | 11.3 | 0.00 | 0.00 | 0.00 | 54 | 1007.9 |
| 20260508140344 | 14 | 146 | 1.6 | 8.0 | 0.00 | 0.00 | 0.00 | 57 | 1007.9 |
| 20260508134826 | 13 | 212 | 1.6 | 6.4 | 0.00 | 0.00 | 0.00 | 60 | 1008.0 |
| 20260508133344 | 12 | 218 | 3.2 | 8.0 | 0.00 | 0.00 | 0.00 | 61 | 1008.0 |
| 20260508131828 | 12 | 199 | 1.6 | 8.0 | 0.00 | 0.00 | 0.00 | 66 | 1008.2 |
| 20260508130323 | 11 | 179 | 1.6 | 4.8 | 0.00 | 0.00 | 0.00 | 68 | 1008.3 |
| 20260508124829 | 11 | 233 | 0.0 | 3.2 | 0.00 | 0.00 | 0.00 | 70 | 1008.3 |
| 20260508123323 | 10 | 124 | 0.0 | 1.6 | 0.00 | 0.00 | 0.00 | 73 | 1008.4 |
| 20260508121835 | 8 | 154 | 0.0 | 1.6 | 0.00 | 0.00 | 0.00 | 74 | 1008.3 |
| 20260508120332 | 6 | 80 | 0.0 | 0.0 | 0.00 | 0.00 | 0.00 | 79 | 1008.1 |
| 20260508114834 | 5 | 13 | 0.0 | 0.0 | 0.00 | 0.00 | 0.00 | 82 | 1007.8 |
| 20260508113350 | 4 | 13 | 0.0 | 0.0 | 0.00 | 0.00 | 0.00 | 86 | 1007.9 |
| 20260508111902 | 2 | 13 | 0.0 | 0.0 | 0.00 | 0.00 | 0.00 | 91 | 1007.9 |
| 20260508110331 | 1 | 12 | 0.0 | 0.0 | 0.00 | 0.00 | 0.00 | 91 | 1007.9 |
| 20260508104840 | 1 | 13 | 0.0 | 0.0 | 0.00 | 0.00 | 0.00 | 91 | 1007.8 |
| 20260508103336 | 1 | 15 | 0.0 | 0.0 | 0.00 | 0.00 | 0.00 | 92 | 1007.7 |
| 20260508101826 | 1 | 15 | 0.0 | 0.0 | 0.00 | 0.00 | 0.00 | 91 | 1007.7 |
| 20260508100322 | 1 | 15 | 0.0 | 0.0 | 0.00 | 0.00 | 0.00 | 91 | 1007.8 |
| 20260508094823 | 1 | 15 | 0.0 | 0.0 | 0.00 | 0.00 | 0.00 | 91 | 1007.7 |
| 20260508093344 | 1 | 15 | 0.0 | 1.6 | 0.00 | 0.00 | 0.00 | 90 | 1007.9 |
| 20260508091849 | 1 | 342 | 0.0 | 1.6 | 0.00 | 0.00 | 0.00 | 90 | 1007.8 |
| 20260508090326 | 1 | 342 | 0.0 | 0.0 | 0.00 | 0.00 | 0.00 | 89 | 1007.8 |
| 20260508084858 | 1 | 342 | 0.0 | 3.2 | 0.00 | 0.00 | 0.00 | 90 | 1007.8 |
| 20260508083353 | 1 | 359 | 1.6 | 4.8 | 0.00 | 0.00 | 0.00 | 89 | 1007.8 |
| 20260508081849 | 2 | 221 | 0.0 | 0.0 | 0.00 | 0.00 | 0.00 | 87 | 1007.9 |
| 20260508080323 | 2 | 230 | 0.0 | 0.0 | 0.00 | 0.00 | 0.00 | 89 | 1008.0 |
| 20260508074826 | 2 | 230 | 0.0 | 0.0 | 0.00 | 0.00 | 0.00 | 88 | 1008.0 |
| 20260508073340 | 2 | 230 | 0.0 | 0.0 | 0.00 | 0.00 | 0.00 | 87 | 1008.1 |
| 20260508071826 | 2 | 199 | 0.0 | 0.0 | 0.00 | 0.00 | 0.00 | 85 | 1008.3 |
| 20260508070342 | 2 | 199 | 0.0 | 0.0 | 0.00 | 0.00 | 0.00 | 85 | 1008.4 |